Change the Weather History Date:

Friday, January 3, 2014

  Actual Average Record
Temperature  
Mean Temperature 11 °F 27 °F  
Max Temperature 16 °F 34 °F 64 °F (2004)
Min Temperature 5 °F 20 °F -2 °F (1979)
Degree Days  
Heating Degree Days 54 38  
Month to date heating degree days 131 114  
Since 1 July heating degree days 2386 2489  
Cooling Degree Days 0 0  
Month to date cooling degree days 0 0  
Year to date cooling degree days 0 0  
Moisture  
Dew Point 0 °F    
Average Humidity 60    
Maximum Humidity 76    
Minimum Humidity 44    
Precipitation  
Precipitation T in 0.07 in 1.02 in (1999)
Month to date precipitation 0.09 0.20  
Year to date precipitation 0.09 0.20  
Sea Level Pressure  
Sea Level Pressure 30.11 in    
Wind  
Wind Speed 14 mph (NW)    
Max Wind Speed 28 mph    
Max Gust Speed 36 mph    
Visibility 8 miles    
Events Snow    
T = Trace of Precipitation, MM = Missing Value Source: NWS Daily Summary

Daily Weather History Graph

Daily Weather History Graph

Search for Another Location

Airport or City:

Trip Planner

Search our weather history database for the weather conditions in past years. The results will help you decide how hot, cold, wet, or windy it might be!

Date:

Astronomy

Jan. 03, 2014 Rise Set
Actual Time 7:36 AM EST 4:59 PM EST
Civil Twilight 7:05 AM EST 5:30 PM EST
Nautical Twilight 6:31 AM EST 6:04 PM EST
Astronomical Twilight 5:58 AM EST 6:37 PM EST
Moon 9:00 AM EST (1/3) 8:07 PM EST (1/3)
Length of Visible Light 10h 24m
Length of Day
9h 23m
Waxing Crescent, 8% of the Moon is Illuminated
Jan 3
Waxing Crescent
Jan 7
First Quarter
Jan 15
Full
Jan 24
Last Quarter
Jan 30
New

Hourly Weather History & Observations

Time (EST) Temp. Windchill Dew Point Humidity Pressure Visibility Wind Dir Wind Speed Gust Speed Precip Events Conditions
12:19 AM 15.1 °F 2.5 °F 10.0 °F 80% 29.74 in 2.5 mi North 10.4 mph - 0.00 in Snow Light Snow
12:28 AM 14.0 °F -0.2 °F 9.0 °F 80% 29.74 in 3.0 mi NNW 12.7 mph - 0.00 in Snow Light Snow
12:53 AM 14.0 °F -3.0 °F 7.0 °F 74% 29.82 in 4.0 mi NW 18.4 mph 28.8 mph 0.00 in Snow Light Snow
1:03 AM 14.0 °F -2.5 °F 8.1 °F 77% 29.75 in 2.5 mi NNW 17.3 mph 21.9 mph 0.00 in Snow Light Snow
1:24 AM 12.9 °F -3.9 °F 8.1 °F 81% 29.77 in 5.0 mi NW 17.3 mph 25.3 mph 0.00 in Snow Light Snow
1:53 AM 10.9 °F -9.9 °F 5.0 °F 77% 29.86 in 3.0 mi NW 26.5 mph 33.4 mph 0.00 in Snow Light Snow
2:29 AM 10.0 °F -7.1 °F 3.0 °F 73% 29.83 in 10.0 mi NW 16.1 mph - 0.00 in   Overcast
2:50 AM 10.4 °F -9.1 °F 1.4 °F 67% 29.84 in 7.0 mi NW 21.9 mph 32.2 mph 0.00 in   Overcast
2:53 AM 9.0 °F -10.5 °F 1.9 °F 73% 29.92 in 8.0 mi NW 20.7 mph 32.2 mph 0.00 in   Overcast
3:02 AM 9.0 °F -10.0 °F 1.9 °F 73% 29.86 in 9.0 mi NW 19.6 mph 26.5 mph 0.00 in   Overcast
3:22 AM 9.0 °F -9.0 °F 1.9 °F 73% 29.88 in 10.0 mi NW 17.3 mph - 0.00 in   Overcast
3:45 AM 8.1 °F -9.6 °F 1.0 °F 73% 29.88 in 9.0 mi NW 16.1 mph 27.6 mph 0.00 in   Overcast
3:53 AM 8.1 °F -10.7 °F -0.0 °F 70% 29.97 in 10.0 mi NW 18.4 mph - 0.00 in   Mostly Cloudy
4:03 AM 7.0 °F -12.1 °F -0.0 °F 73% 29.90 in 10.0 mi NW 18.4 mph 24.2 mph N/A   Overcast
4:53 AM 6.1 °F -14.3 °F -0.9 °F 73% 30.02 in 9.0 mi NW 20.7 mph 31.1 mph N/A   Scattered Clouds
5:04 AM 6.1 °F -15.7 °F -0.9 °F 73% 29.94 in 4.0 mi NW 24.2 mph 33.4 mph 0.00 in   Mostly Cloudy
5:15 AM 6.1 °F -14.8 °F -0.9 °F 73% 29.96 in 7.0 mi NW 21.9 mph 35.7 mph 0.00 in   Partly Cloudy
5:53 AM 6.1 °F -13.8 °F -2.0 °F 69% 30.10 in 10.0 mi NNW 19.6 mph 28.8 mph 0.00 in   Scattered Clouds
6:02 AM 6.1 °F -12.2 °F -0.9 °F 73% 30.03 in 10.0 mi NW 16.1 mph 24.2 mph N/A   Mostly Cloudy
6:53 AM 6.1 °F -12.8 °F -2.0 °F 69% 30.15 in 10.0 mi NNW 17.3 mph 25.3 mph N/A   Scattered Clouds
7:53 AM 6.1 °F -9.5 °F -2.0 °F 69% 30.19 in 10.0 mi NW 11.5 mph 23.0 mph N/A   Scattered Clouds
8:53 AM 7.0 °F -11.0 °F -2.0 °F 67% 30.24 in 10.0 mi WNW 16.1 mph - N/A   Clear
9:53 AM 8.1 °F -12.6 °F -2.9 °F 61% 30.27 in 10.0 mi WNW 23.0 mph - N/A   Clear
10:53 AM 9.0 °F -10.0 °F -2.9 °F 59% 30.30 in 10.0 mi NW 19.6 mph 26.5 mph N/A   Clear
11:53 AM 10.9 °F -5.4 °F -4.0 °F 51% 30.31 in 10.0 mi NW 15.0 mph - N/A   Clear
12:53 PM 12.0 °F -4.5 °F -2.9 °F 51% 30.31 in 10.0 mi WNW 16.1 mph - N/A   Clear
1:53 PM 12.0 °F -5.1 °F -4.0 °F 49% 30.32 in 10.0 mi NW 17.3 mph - N/A   Clear
2:53 PM 12.9 °F -0.9 °F -4.0 °F 47% 30.35 in 10.0 mi NW 11.5 mph 19.6 mph N/A   Clear
3:53 PM 14.0 °F 2.9 °F -5.1 °F 43% 30.37 in 10.0 mi NW 8.1 mph - N/A   Clear
4:53 PM 12.0 °F -1.3 °F -4.0 °F 49% 30.40 in 10.0 mi NW 10.4 mph - N/A   Clear
5:53 PM 10.0 °F 0.4 °F -4.0 °F 53% 30.43 in 10.0 mi WNW 5.8 mph - N/A   Clear
6:53 PM 9.0 °F -2.2 °F -2.0 °F 61% 30.45 in 10.0 mi West 6.9 mph - N/A   Clear
7:53 PM 9.0 °F 2.4 °F -2.0 °F 61% 30.46 in 10.0 mi SSW 3.5 mph - N/A   Clear
8:53 PM 7.0 °F 0.1 °F -2.0 °F 67% 30.46 in 10.0 mi South 3.5 mph - N/A   Clear
9:53 PM 6.1 °F -4.3 °F -2.0 °F 69% 30.45 in 10.0 mi SSW 5.8 mph - N/A   Clear
10:53 PM 6.1 °F -2.8 °F -0.9 °F 73% 30.44 in 10.0 mi SSW 4.6 mph - N/A   Clear
11:53 PM 6.1 °F -5.6 °F -0.9 °F 73% 30.43 in 10.0 mi SW 6.9 mph - N/A   Clear